Location: Asheville, NC
(35.6000°N, 82.5500°W)
Time: 19:42:51
(UTC-04:00)

AO-73 - Pass Details

Date: 09 March 2018
Orbit: 582 x 665 km, 97.6° (Epoch: 23 June)

Event Time Altitude Azimuth Distance (km) Brightness Sun altitude
Rises 19:58:29 0° 172° (S) 2,909 ? -18.2°
Reaches altitude 10° 20:00:42 10° 175° (S) 1,992 ? -18.7°
Maximum altitude 20:05:01 69° 259° (W) 659 ? -19.5°
Drops below altitude 10° 20:09:15 10° 343° (NNW) 1,955 ? -20.4°
Sets 20:11:25 0° 346° (NNW) 2,850 ? -20.8°
